Weather History for Columbus AFB, MS

Change the Weather History Date:

Monday, April 21, 2014

  Actual Average Record
Temperature  
Mean Temperature 65 °F -  
Max Temperature 81 °F 72 °F 86 °F (2002)
Min Temperature 49 °F 52 °F 43 °F (2013)
Growing Degree Days 15 (Base 50)    
Moisture  
Dew Point 54 °F    
Average Humidity 81    
Maximum Humidity 100    
Minimum Humidity 41    
Precipitation  
Precipitation 0.00 in - - ()
Sea Level Pressure  
Sea Level Pressure 30.07 in    
Wind  
Wind Speed 2 mph (South)    
Max Wind Speed 9 mph    
Max Gust Speed -    
Visibility 9 miles    
Events Rain    
Averages and records for this station are not official NWS values.
T = Trace of Precipitation, MM = Missing Value Source: NWS Daily Summary

Daily Weather History Graph

Daily Weather History Graph

Search for Another Location

Airport:

Trip Planner

Search our weather history database for the weather conditions in past years. The results will help you decide how hot, cold, wet, or windy it might be!

Date:

Astronomy

Apr. 21, 2014 Rise Set
Actual Time 6:16 AM CDT 7:29 PM CDT
Civil Twilight 5:50 AM CDT 7:55 PM CDT
Nautical Twilight 5:19 AM CDT 8:26 PM CDT
Astronomical Twilight 4:47 AM CDT 8:58 PM CDT
Moon 12:55 AM CDT (4/21) 11:46 AM CDT (4/21)
Length of Visible Light 14h 05m
Length of Day
13h 13m
Waning Gibbous, 57% of the Moon is Illuminated
Apr 21
Waning Gibbous
Apr 22
Last Quarter
Apr 29
New
May 6
First Quarter
May 14
Full

Hourly Weather History & Observations

Time (CDT) Temp. Heat Index Dew Point Humidity Pressure Visibility Wind Dir Wind Speed Gust Speed Precip Events Conditions
12:58 AM 52.3 °F - 51.8 °F 98% 30.13 in 10.0 mi Calm Calm - N/A   Clear
1:58 AM 52.7 °F - 52.7 °F 100% 30.12 in 10.0 mi Calm Calm - N/A   Clear
2:03 AM 53.6 °F - 53.6 °F 100% 30.11 in 6.0 mi ESE 1.2 mph - N/A   Clear
2:13 AM 51.8 °F - 51.8 °F 100% 30.11 in 9.0 mi ESE 1.2 mph - N/A   Clear
2:18 AM 51.8 °F - 51.8 °F 100% 30.11 in 10.0 mi Calm Calm - N/A   Clear
2:23 AM 51.8 °F - 51.8 °F 100% 30.11 in 7.0 mi Calm Calm - N/A   Clear
2:28 AM 51.8 °F - 51.8 °F 100% 30.11 in 4.0 mi Calm Calm - N/A   Clear
2:33 AM 51.8 °F - 51.8 °F 100% 30.11 in 2.5 mi Calm Calm - N/A   Clear
2:38 AM 51.8 °F - 51.8 °F 100% 30.11 in 4.0 mi Calm Calm - N/A   Clear
2:43 AM 51.8 °F - 51.8 °F 100% 30.11 in 10.0 mi Calm Calm - N/A   Clear
2:58 AM 50.4 °F - 50.4 °F 100% 30.12 in 10.0 mi Calm Calm - N/A   Clear
3:13 AM 51.8 °F - 51.8 °F 100% 30.11 in 9.0 mi Calm Calm - N/A   Clear
3:18 AM 51.8 °F - 51.8 °F 100% 30.11 in 4.0 mi ESE 2.3 mph - N/A   Partly Cloudy
3:23 AM 51.8 °F - 51.8 °F 100% 30.10 in 3.0 mi ESE 4.6 mph - N/A   Partly Cloudy
3:28 AM 51.8 °F - 51.8 °F 100% 30.10 in 5.0 mi SE 3.5 mph - N/A   Partly Cloudy
3:58 AM 51.8 °F - 51.8 °F 100% 30.11 in 10.0 mi SE 4.6 mph - N/A   Clear
4:58 AM 49.3 °F - 49.3 °F 100% 30.12 in 10.0 mi Calm Calm - N/A   Clear
5:58 AM 49.6 °F - 49.6 °F 100% 30.13 in 10.0 mi Calm Calm - N/A   Clear
6:58 AM 51.6 °F - 51.6 °F 100% 30.14 in 10.0 mi Calm Calm - N/A   Scattered Clouds
7:58 AM 57.4 °F - 54.5 °F 90% 30.14 in 10.0 mi SSE 4.6 mph - N/A   Partly Cloudy
8:58 AM 63.7 °F - 54.7 °F 72% 30.14 in 10.0 mi South 4.6 mph - N/A   Clear
9:58 AM 71.6 °F - 56.3 °F 58% 30.13 in 10.0 mi South 5.8 mph - N/A   Clear
10:58 AM 73.9 °F - 56.5 °F 54% 30.13 in 10.0 mi SSW 5.8 mph - N/A   Partly Cloudy
11:58 AM 75.7 °F - 54.7 °F 48% 30.10 in 10.0 mi SSW 9.2 mph - N/A   Clear
12:58 PM 77.5 °F - 56.3 °F 48% 30.08 in 10.0 mi South 9.2 mph - N/A   Scattered Clouds
1:58 PM 77.5 °F - 55.4 °F 46% 30.07 in 10.0 mi South 9.2 mph - N/A   Scattered Clouds
2:58 PM 79.5 °F - 55.4 °F 43% 30.05 in 10.0 mi SW 9.2 mph - N/A   Scattered Clouds
3:58 PM 81.0 °F 80.7 °F 55.0 °F 41% 30.01 in 10.0 mi SSW 9.2 mph - N/A   Partly Cloudy
4:58 PM 77.4 °F - 54.9 °F 46% 29.99 in 10.0 mi South 6.9 mph - N/A   Mostly Cloudy
5:58 PM 77.4 °F - 55.9 °F 47% 29.98 in 10.0 mi SSW 5.8 mph - N/A   Mostly Cloudy
6:58 PM 75.7 °F - 56.5 °F 51% 29.97 in 10.0 mi South 4.6 mph - N/A   Scattered Clouds
7:58 PM 68.9 °F - 57.6 °F 67% 29.97 in 10.0 mi South 5.8 mph - N/A   Partly Cloudy
8:22 PM 64.4 °F - 57.2 °F 77% 29.96 in 10.0 mi South 3.5 mph - N/A Rain Light Rain
8:25 PM 64.4 °F - 57.2 °F 77% 29.96 in 10.0 mi South 3.5 mph - N/A   Partly Cloudy
8:58 PM 64.2 °F - 58.6 °F 82% 29.97 in 10.0 mi Calm Calm - 0.00 in   Scattered Clouds
9:58 PM 65.5 °F - 60.1 °F 83% 29.98 in 10.0 mi WSW 2.3 mph - N/A   Mostly Cloudy
10:58 PM 65.8 °F - 57.6 °F 75% 29.97 in 10.0 mi SE 1.2 mph - N/A   Scattered Clouds
11:58 PM 64.4 °F - 58.1 °F 80% 29.96 in 10.0 mi Calm Calm - N/A   Mostly Cloudy